Weather History for Prague, Czech Republic

Change the Weather History Date:

Tuesday, February 12, 2013

  Actual Average Record
Temperature  
Mean Temperature 27 °F -  
Max Temperature 28 °F 41 °F 53 °F (2002)
Min Temperature 26 °F 26 °F -7 °F (2012)
Degree Days  
Heating Degree Days 38    
Moisture  
Dew Point 24 °F    
Average Humidity 88    
Maximum Humidity 100    
Minimum Humidity 69    
Precipitation  
Precipitation 0.08 in 0.03 in - ()
Sea Level Pressure  
Sea Level Pressure 29.76 in    
Wind  
Wind Speed 10 mph ()    
Max Wind Speed 16 mph    
Max Gust Speed -    
Visibility 3.1 miles    
Events Fog , Snow    
Averages and records for this station are not official NWS values.
T = Trace of Precipitation, MM = Missing Value Source: Averaged Metar Reports

Daily Weather History Graph

Daily Weather History Graph

Search for Another Location

Airport:

Trip Planner

Search our weather history database for the weather conditions in past years. The results will help you decide how hot, cold, wet, or windy it might be!

Date:

Astronomy

Feb. 12, 2013 Rise Set
Actual Time 7:19 AM CET 5:16 PM CET
Civil Twilight 6:45 AM CET 5:49 PM CET
Nautical Twilight 6:07 AM CET 6:27 PM CET
Astronomical Twilight 5:29 AM CET 7:05 PM CET
Moon 7:47 AM CET (2/12) 8:21 PM CET (2/12)
Length of Visible Light 11h 04m
Length of Day
9h 57m
Waxing Crescent, 6% of the Moon is Illuminated
Feb 12
Waxing Crescent
Feb 17
First Quarter
Feb 25
Full
Mar 4
Last Quarter
Mar 11
New

Hourly Weather History & Observations

Time (CET) Temp. Windchill Dew Point Humidity Pressure Visibility Wind Dir Wind Speed Gust Speed Precip Events Conditions
12:00 AM 26.6 °F 16.2 °F 21.2 °F 80% 29.71 in 6.2 mi East 11.5 mph - N/A   Overcast
12:30 AM 26.6 °F 16.8 °F 21.2 °F 80% 29.71 in 6.2 mi ENE 10.4 mph - N/A   Overcast
1:00 AM 27 °F - 21 °F 69% 29.81 in 7 mi East 11.2 mph - -   Overcast
1:00 AM 26.6 °F 15.7 °F 21.2 °F 80% 29.71 in 6.2 mi East 12.7 mph - N/A   Overcast
1:30 AM 26.6 °F 15.7 °F 21.2 °F 80% 29.71 in 6.2 mi East 12.7 mph - N/A   Overcast
2:00 AM 26.6 °F 15.2 °F 21.2 °F 80% 29.71 in 6.2 mi East 13.8 mph - N/A   Overcast
2:30 AM 26.6 °F 15.2 °F 21.2 °F 80% 29.71 in 6.2 mi East 13.8 mph - N/A   Overcast
3:00 AM 26.6 °F 15.7 °F 21.2 °F 80% 29.71 in 6.2 mi ENE 12.7 mph - N/A   Overcast
3:30 AM 26.6 °F 15.2 °F 21.2 °F 80% 29.68 in 6.2 mi ENE 13.8 mph - N/A   Overcast
4:00 AM 26.6 °F 15.2 °F 21.2 °F 80% 29.68 in 6.2 mi East 13.8 mph - N/A   Overcast
4:30 AM 26.6 °F 15.7 °F 21.2 °F 80% 29.71 in 6.2 mi East 12.7 mph - N/A   Overcast
5:00 AM 26.6 °F 15.2 °F 21.2 °F 80% 29.71 in 6.2 mi East 13.8 mph - N/A   Overcast
5:30 AM 26.6 °F 14.7 °F 21.2 °F 80% 29.71 in 6.2 mi East 15.0 mph - N/A   Overcast
6:00 AM 26.6 °F 15.2 °F 21.2 °F 80% 29.68 in 6.2 mi East 13.8 mph - N/A   Overcast
6:30 AM 26.6 °F 15.7 °F 21.2 °F 80% 29.71 in 6.2 mi East 12.7 mph - N/A   Overcast
7:00 AM 26 °F - 21 °F 76% 29.79 in 6 mi ENE 11.2 mph - -   Overcast
7:00 AM 26.6 °F 15.2 °F 21.2 °F 80% 29.71 in 6.2 mi ENE 13.8 mph - N/A   Overcast
7:30 AM 26.6 °F 16.2 °F 21.2 °F 80% 29.71 in 6.2 mi East 11.5 mph - N/A   Overcast
8:00 AM 26.6 °F 15.7 °F 21.2 °F 80% 29.71 in 6.2 mi East 12.7 mph - N/A   Overcast
8:30 AM 26.6 °F 15.7 °F 21.2 °F 80% 29.74 in 6.2 mi East 12.7 mph - N/A   Overcast
9:00 AM 26.6 °F 15.7 °F 21.2 °F 80% 29.74 in 6.2 mi ENE 12.7 mph - N/A Snow Light Snow
9:19 AM 26.6 °F 16.2 °F 23.0 °F 86% 29.74 in 2.8 mi ENE 11.5 mph - N/A Snow Light Snow
9:22 AM 26.6 °F 15.7 °F 23.0 °F 86% 29.74 in 1.9 mi ENE 12.7 mph - N/A Snow Snow
9:30 AM 26.6 °F 15.7 °F 23.0 °F 86% 29.74 in 1.6 mi East 12.7 mph - N/A Snow Snow
9:42 AM 26.6 °F 15.7 °F 23.0 °F 86% 29.74 in 0.9 mi ENE 12.7 mph - N/A Snow Snow
9:48 AM 26.6 °F 16.2 °F 23.0 °F 86% 29.74 in 1.6 mi ENE 11.5 mph - N/A Snow Snow
9:53 AM 26.6 °F 15.7 °F 23.0 °F 86% 29.74 in - ENE 12.7 mph - N/A Snow Snow
10:00 AM 26.6 °F 15.7 °F 23.0 °F 86% 29.74 in 0.9 mi ENE 12.7 mph - N/A Snow Snow
10:30 AM 26.6 °F 16.2 °F 24.8 °F 93% 29.74 in 0.7 mi East 11.5 mph - N/A Snow Snow
11:00 AM 26.6 °F 15.7 °F 24.8 °F 93% 29.74 in 0.9 mi East 12.7 mph - N/A Snow Snow
11:17 AM 26.6 °F 16.8 °F 24.8 °F 93% 29.74 in 0.7 mi ENE 10.4 mph - N/A Snow Snow
11:30 AM 26.6 °F 15.7 °F 24.8 °F 93% 29.74 in 0.9 mi East 12.7 mph - N/A Snow Snow
12:00 PM 26.6 °F 14.3 °F 24.8 °F 93% 29.74 in 1.1 mi East 16.1 mph - N/A Snow Snow
12:30 PM 26.6 °F 16.2 °F 24.8 °F 93% 29.74 in 0.7 mi East 11.5 mph - N/A Snow Snow
12:49 PM 26.6 °F 16.2 °F 24.8 °F 93% 29.74 in 0.6 mi ENE 11.5 mph - N/A Snow Snow
1:00 PM 27 °F - 24 °F 86% 29.83 in 0 mi East 13.4 mph - - Snow Snow
1:00 PM 26.6 °F 15.7 °F 24.8 °F 93% 29.74 in 0.5 mi East 12.7 mph - N/A Snow Snow
1:07 PM 26.6 °F 16.2 °F 24.8 °F 93% 29.74 in 0.6 mi ENE 11.5 mph - N/A Snow Snow
1:19 PM 26.6 °F 16.8 °F 24.8 °F 93% 29.74 in 0.8 mi East 10.4 mph - N/A Snow Snow
1:30 PM 26.6 °F 15.7 °F 24.8 °F 93% 29.74 in 0.8 mi East 12.7 mph - N/A Snow Snow
1:51 PM 28.4 °F 19.1 °F 24.8 °F 86% 29.74 in 1.2 mi East 10.4 mph - N/A Snow Snow
2:00 PM 28.4 °F 18.5 °F 24.8 °F 86% 29.74 in 1.6 mi East 11.5 mph - N/A Snow Snow
2:11 PM 28.4 °F 19.1 °F 24.8 °F 86% 29.74 in 2.2 mi East 10.4 mph - N/A Snow Light Snow
2:30 PM 26.6 °F 15.7 °F 24.8 °F 93% 29.74 in 3.1 mi East 12.7 mph - N/A Snow Light Snow
3:00 PM 26.6 °F 16.8 °F 24.8 °F 93% 29.74 in 3.1 mi East 10.4 mph - N/A Snow Light Snow
3:30 PM 26.6 °F 17.5 °F 24.8 °F 93% 29.74 in 2.8 mi East 9.2 mph - N/A Snow Light Snow
4:00 PM 28.4 °F 20.4 °F 24.8 °F 86% 29.77 in 2.5 mi East 8.1 mph - N/A Snow Light Snow
4:21 PM 28.4 °F 20.4 °F 24.8 °F 86% 29.77 in 1.9 mi East 8.1 mph - N/A Snow Snow
4:30 PM 28.4 °F 19.7 °F 24.8 °F 86% 29.77 in 1.7 mi East 9.2 mph - N/A Snow Snow
4:49 PM 28.4 °F 20.4 °F 24.8 °F 86% 29.77 in 2.2 mi East 8.1 mph - N/A Snow Light Snow
5:00 PM 26.6 °F 19.1 °F 24.8 °F 93% 29.77 in 2.8 mi East 6.9 mph - N/A Snow Light Snow
5:30 PM 26.6 °F 19.1 °F 24.8 °F 93% 29.77 in 2.5 mi East 6.9 mph - N/A Snow Light Snow
5:44 PM 26.6 °F 20.0 °F 26.6 °F 100% 29.80 in 2.8 mi ENE 5.8 mph - N/A Snow Light Snow
6:00 PM 28.4 °F 22.2 °F 26.6 °F 93% 29.80 in 3.1 mi ENE 5.8 mph - N/A Snow Light Snow
6:30 PM 28.4 °F 24.6 °F 26.6 °F 93% 29.80 in 3.1 mi NE 3.5 mph - N/A Snow Light Snow
7:00 PM 28 °F - 26 °F 89% 29.90 in 2 mi ENE 4.5 mph - - Snow Light Snow
7:00 PM 28.4 °F 24.6 °F 26.6 °F 93% 29.83 in 3.1 mi North 3.5 mph - N/A Snow Light Snow
7:30 PM 28.4 °F 23.3 °F 26.6 °F 93% 29.83 in 2.8 mi North 4.6 mph - N/A Snow Light Snow
7:49 PM 28.4 °F 24.6 °F 26.6 °F 93% 29.83 in 2.5 mi North 3.5 mph - N/A Snow Light Snow
8:00 PM 28.4 °F 23.3 °F 26.6 °F 93% 29.83 in 2.5 mi North 4.6 mph - N/A Snow Light Snow
8:12 PM 28.4 °F 24.6 °F 26.6 °F 93% 29.83 in 2.5 mi North 3.5 mph - N/A Snow Light Snow
8:30 PM 28.4 °F 24.6 °F 26.6 °F 93% 29.83 in - North 3.5 mph - N/A Snow Light Snow
9:00 PM 28.4 °F 22.2 °F 26.6 °F 93% 29.83 in 1.4 mi NNW 5.8 mph - N/A Snow Light Snow
9:19 PM 26.6 °F 22.6 °F 26.6 °F 100% 29.83 in 0.4 mi NNW 3.5 mph - N/A Fog , Snow Light Snow
9:30 PM 26.6 °F 20.0 °F 26.6 °F 100% 29.86 in 0.4 mi NNW 5.8 mph - N/A Fog , Snow Light Snow
9:49 PM 26.6 °F 22.6 °F 26.6 °F 100% 29.86 in - NNW 3.5 mph - N/A Fog , Snow Light Snow
10:00 PM 26.6 °F 20.0 °F 26.6 °F 100% 29.86 in 0.4 mi NNW 5.8 mph - N/A Fog , Snow Light Snow
10:06 PM 26.6 °F 21.2 °F 26.6 °F 100% 29.86 in 0.4 mi North 4.6 mph - N/A Fog , Snow Light Snow
10:30 PM 26.6 °F 22.6 °F 26.6 °F 100% 29.86 in - NNW 3.5 mph - N/A Fog , Snow Light Snow
11:00 PM 26.6 °F 21.2 °F 26.6 °F 100% 29.86 in 0.6 mi WNW 4.6 mph - N/A Fog , Snow Light Snow
11:30 PM 26.6 °F 21.2 °F 26.6 °F 100% 29.89 in 1.1 mi NW 4.6 mph - N/A   Overcast